• In Uzbekistan
  • List of Countries
  • For 7 days
  • Water Temperature
  • Satellite Maps
  • Weather Map
  • Weather Widgets
  • user-avatar
    Login

    Hourly Weather Neuquén

    Today, 26 February, Sunday

    Time Temperature Precipitation Wind Pressure Humidity
    00:00 +29°C° 0.8 mm 2 mps 729 mmHg 56%
    01:00 +28°C° 0 mm 1 mps 730 mmHg 56%
    02:00 +28°C° 0.2 mm 1 mps 729 mmHg 58%
    03:00 +27°C° 0.2 mm 1 mps 729 mmHg 59%
    04:00 +27°C° 0.2 mm 2 mps 729 mmHg 61%
    05:00 +28°C° 0 mm 2 mps 729 mmHg 58%
    06:00 +29°C° 0 mm 2 mps 729 mmHg 55%
    07:00 +29°C° 0 mm 2 mps 729 mmHg 52%
    08:00 +31°C° 0 mm 2 mps 729 mmHg 47%
    09:00 +32°C° 0 mm 2 mps 729 mmHg 42%
    10:00 +35°C° 0 mm 2 mps 729 mmHg 36%
    11:00 +36°C° 0.1 mm 2 mps 729 mmHg 33%
    12:00 +36°C° 0.1 mm 1 mps 729 mmHg 30%
    13:00 +37°C° 0.1 mm 1 mps 728 mmHg 27%
    14:00 +37°C° 0 mm 1 mps 728 mmHg 27%
    15:00 +37°C° 0 mm 1 mps 728 mmHg 26%
    16:00 +37°C° 0 mm 1 mps 728 mmHg 26%
    17:00 +36°C° 0.1 mm 1 mps 728 mmHg 28%
    18:00 +36°C° 0.1 mm 2 mps 728 mmHg 30%
    19:00 +35°C° 0.1 mm 2 mps 728 mmHg 32%
    20:00 +34°C° 0.2 mm 3 mps 728 mmHg 32%
    21:00 +33°C° 0.2 mm 5 mps 729 mmHg 32%
    22:00 +32°C° 0.2 mm 6 mps 729 mmHg 32%
    23:00 +30°C° 0.1 mm 6 mps 729 mmHg 31%

    Tomorrow, 27 February, Monday

    Time Temperature Precipitation Wind Pressure Humidity
    00:00 +29°C° 0.1 mm 7 mps 729 mmHg 30%
    01:00 +28°C° 0.1 mm 7 mps 729 mmHg 29%
    02:00 +28°C° 0 mm 7 mps 729 mmHg 29%
    03:00 +27°C° 0 mm 7 mps 729 mmHg 29%
    04:00 +26°C° 0 mm 6 mps 729 mmHg 29%
    05:00 +27°C° 0 mm 7 mps 730 mmHg 28%
    06:00 +28°C° 0 mm 8 mps 730 mmHg 27%
    07:00 +28°C° 0 mm 8 mps 730 mmHg 26%
    08:00 +31°C° 0 mm 9 mps 730 mmHg 24%
    09:00 +33°C° 0 mm 9 mps 730 mmHg 23%
    10:00 +34°C° 0 mm 9 mps 730 mmHg 21%
    11:00 +35°C° 0 mm 8 mps 730 mmHg 19%
    12:00 +37°C° 0 mm 8 mps 729 mmHg 18%
    13:00 +39°C° 0 mm 8 mps 729 mmHg 16%
    14:00 +39°C° 0 mm 8 mps 729 mmHg 15%
    15:00 +39°C° 0 mm 7 mps 728 mmHg 14%
    16:00 +39°C° 0 mm 7 mps 728 mmHg 13%
    17:00 +36°C° 0 mm 7 mps 728 mmHg 15%
    18:00 +35°C° 0 mm 7 mps 729 mmHg 16%
    19:00 +33°C° 0 mm 7 mps 729 mmHg 18%
    20:00 +32°C° 0 mm 7 mps 729 mmHg 20%
    21:00 +30°C° 0 mm 7 mps 729 mmHg 23%
    22:00 +29°C° 0 mm 8 mps 730 mmHg 26%
    23:00 +28°C° 0 mm 7 mps 730 mmHg 27%

    Day after tomorrow, 28 February, Tuesday

    Time Temperature Precipitation Wind Pressure Humidity
    00:00 +27°C° 0 mm 7 mps 729 mmHg 28%
    01:00 +27°C° 0 mm 7 mps 729 mmHg 30%
    02:00 +26°C° 0 mm 6 mps 729 mmHg 31%
    03:00 +24°C° 0 mm 6 mps 729 mmHg 33%
    04:00 +25°C° 0 mm 5 mps 729 mmHg 34%
    05:00 +26°C° 0 mm 5 mps 729 mmHg 35%
    06:00 +26°C° 0 mm 6 mps 728 mmHg 36%
    07:00 +27°C° 0 mm 6 mps 728 mmHg 36%
    08:00 +29°C° 0 mm 7 mps 728 mmHg 33%
    09:00 +32°C° 0 mm 8 mps 727 mmHg 30%
    10:00 +34°C° 0 mm 10 mps 727 mmHg 27%
    11:00 +36°C° 0 mm 10 mps 726 mmHg 24%
    12:00 +38°C° 0 mm 11 mps 726 mmHg 20%
    13:00 +39°C° 0 mm 11 mps 725 mmHg 17%
    14:00 +38°C° 0 mm 12 mps 725 mmHg 19%
    15:00 +37°C° 0 mm 13 mps 725 mmHg 21%
    16:00 +36°C° 0 mm 14 mps 725 mmHg 23%
    17:00 +33°C° 0 mm 14 mps 726 mmHg 28%
    18:00 +29°C° 0 mm 13 mps 726 mmHg 34%
    19:00 +27°C° 0 mm 13 mps 727 mmHg 39%
    20:00 +27°C° 0 mm 13 mps 727 mmHg 37%
    21:00 +26°C° 0 mm 13 mps 727 mmHg 35%
    22:00 +26°C° 0 mm 12 mps 727 mmHg 32%
    23:00 +24°C° 0 mm 12 mps 727 mmHg 34%

    1 March, Wednesday

    Time Temperature Precipitation Wind Pressure Humidity
    00:00 +23°C° 0 mm 11 mps 727 mmHg 36%
    01:00 +23°C° 0 mm 11 mps 726 mmHg 38%
    02:00 +22°C° 0 mm 10 mps 726 mmHg 40%
    03:00 +21°C° 0 mm 9 mps 726 mmHg 43%
    04:00 +20°C° 0 mm 8 mps 727 mmHg 45%
    05:00 +20°C° 0 mm 8 mps 727 mmHg 43%
    06:00 +21°C° 0 mm 8 mps 728 mmHg 41%
    07:00 +21°C° 0 mm 8 mps 728 mmHg 40%
    08:00 +23°C° 0 mm 7 mps 728 mmHg 35%
    09:00 +26°C° 0 mm 7 mps 728 mmHg 31%
    10:00 +27°C° 0 mm 6 mps 728 mmHg 26%
    11:00 +29°C° 0 mm 6 mps 727 mmHg 24%
    12:00 +30°C° 0 mm 6 mps 727 mmHg 21%
    13:00 +33°C° 0 mm 6 mps 726 mmHg 18%
    14:00 +32°C° 0.1 mm 6 mps 726 mmHg 20%
    15:00 +32°C° 0.1 mm 7 mps 725 mmHg 22%
    16:00 +32°C° 0.1 mm 8 mps 725 mmHg 24%
    17:00 +29°C° 0 mm 7 mps 725 mmHg 26%
    18:00 +28°C° 0 mm 7 mps 725 mmHg 29%
    19:00 +27°C° 0 mm 6 mps 726 mmHg 31%
    20:00 +24°C° 0.1 mm 7 mps 726 mmHg 31%
    21:00 +23°C° 0.1 mm 8 mps 726 mmHg 31%
    22:00 +22°C° 0.1 mm 9 mps 726 mmHg 30%
    23:00 +19°C° 0.1 mm 9 mps 727 mmHg 32%

    2 March, Thursday

    Time Temperature Precipitation Wind Pressure Humidity
    00:00 +18°C° 0.1 mm 10 mps 727 mmHg 34%
    01:00 +17°C° 0.1 mm 10 mps 727 mmHg 36%
    02:00 +17°C° 0 mm 10 mps 727 mmHg 36%
    03:00 +16°C° 0 mm 10 mps 728 mmHg 36%
    04:00 +14°C° 0 mm 10 mps 728 mmHg 36%
    05:00 +14°C° 0 mm 10 mps 729 mmHg 36%
    06:00 +16°C° 0 mm 10 mps 730 mmHg 37%
    07:00 +16°C° 0 mm 9 mps 731 mmHg 37%
    08:00 +17°C° 0 mm 8 mps 731 mmHg 33%
    09:00 +20°C° 0 mm 7 mps 731 mmHg 29%
    10:00 +22°C° 0 mm 6 mps 732 mmHg 24%
    11:00 +23°C° 0 mm 6 mps 731 mmHg 22%
    12:00 +24°C° 0 mm 6 mps 731 mmHg 19%
    13:00 +26°C° 0 mm 6 mps 731 mmHg 16%
    14:00 +26°C° 0 mm 7 mps 730 mmHg 16%
    15:00 +26°C° 0 mm 7 mps 730 mmHg 16%
    16:00 +26°C° 0 mm 8 mps 730 mmHg 15%
    17:00 +24°C° 0 mm 8 mps 730 mmHg 18%
    18:00 +23°C° 0 mm 7 mps 731 mmHg 20%
    19:00 +22°C° 0 mm 7 mps 731 mmHg 23%
    20:00 +21°C° 0 mm 7 mps 732 mmHg 27%
    21:00 +20°C° 0 mm 8 mps 733 mmHg 30%
    22:00 +18°C° 0 mm 9 mps 733 mmHg 34%
    23:00 +17°C° 0 mm 8 mps 733 mmHg 36%

    3 March, Friday

    Time Temperature Precipitation Wind Pressure Humidity
    00:00 +17°C° 0 mm 7 mps 734 mmHg 38%
    01:00 +16°C° 0 mm 6 mps 734 mmHg 40%
    02:00 +16°C° 0 mm 6 mps 734 mmHg 41%
    03:00 +15°C° 0 mm 5 mps 734 mmHg 42%
    04:00 +15°C° 0 mm 5 mps 735 mmHg 44%
    05:00 +15°C° 0 mm 4 mps 735 mmHg 41%
    06:00 +17°C° 0 mm 4 mps 736 mmHg 39%
    07:00 +18°C° 0 mm 4 mps 737 mmHg 37%
    08:00 +19°C° 0 mm 4 mps 737 mmHg 33%
    09:00 +20°C° 0 mm 3 mps 737 mmHg 29%
    10:00 +22°C° 0 mm 3 mps 737 mmHg 25%
    11:00 +24°C° 0 mm 2 mps 737 mmHg 23%
    12:00 +25°C° 0 mm 2 mps 736 mmHg 21%
    13:00 +26°C° 0 mm 2 mps 736 mmHg 19%
    14:00 +26°C° 0 mm 2 mps 735 mmHg 18%
    15:00 +26°C° 0 mm 2 mps 735 mmHg 17%
    16:00 +27°C° 0 mm 2 mps 735 mmHg 17%
    17:00 +25°C° 0 mm 3 mps 735 mmHg 19%
    18:00 +24°C° 0 mm 3 mps 735 mmHg 21%
    19:00 +22°C° 0 mm 3 mps 735 mmHg 22%
    20:00 +21°C° 0 mm 4 mps 735 mmHg 24%
    21:00 +21°C° 0 mm 4 mps 735 mmHg 26%
    22:00 +20°C° 0 mm 4 mps 735 mmHg 28%
    23:00 +20°C° 0 mm 4 mps 735 mmHg 29%
    Show more